Regional Weather Roundup
Issued by NWS

Home | Current Version | Previous Version | Text Only | Print | Product List | Glossary On
Versions: 1 2 3 4 5 6 7 8 9 10 11 12 13 14 15 16 17 18 19 20 21 22 23 24 25 26 27 28 29 30 31 32 33 34 35 36 37 38 39 40 41 42 43 44 45 46 47 48 49 50
000
ASUS44 KBMX 271110
RWRAL

ALABAMA REGIONAL WEATHER ROUNDUP
NATIONAL WEATHER SERVICE BIRMINGHAM AL
500 AM CST MON FEB 27 2017

NOTE: "FAIR" INDICATES FEW OR NO CLOUDS BELOW 12,000 FEET
WITH NO SIGNIFICANT WEATHER AND/OR OBSTRUCTIONS TO VISIBILITY.

THE REMARK "TC" DENOTES TEMPERATURE IN DEGREES CELSIUS.

ALZ001>011-014-016>018-020-271200-
NORTH ALABAMA

CITY           SKY/WX    TMP DP  RH WIND       PRES   REMARKS
MUSCLE SHOALS  CLOUDY    51  33  50 NE5       30.18R
HUNTSVILLE     CLOUDY    51  30  44 E8        30.17R
DECATUR        CLOUDY    46  38  73 E7        30.17R
HALEYVILLE     CLOUDY    48  32  53 E6        30.14F
GADSDEN        MOCLDY    45  33  63 NE6       30.20R
$$

ALZ012-013-022-023-030>036-040>044-271200-
WEST CENTRAL ALABAMA

CITY           SKY/WX    TMP DP  RH WIND       PRES   REMARKS
TUSCALOOSA     CLOUDY    54  31  41 VRB5      30.12R
$$

ALZ015-024>027-033>036-040>044-271200-
CENTRAL ALABAMA

CITY           SKY/WX    TMP DP  RH WIND       PRES   REMARKS
BIRMINGHAM     PTCLDY    56  24  29 SE7G16    30.15F
MONTGOMERY     CLOUDY    49  36  61 E6        30.18R
SHELBY CO ARPT CLEAR     49  30  48 E5        30.13F
MAXWELL AFB    CLOUDY    48  42  79 CALM      30.16S
GREENVILLE     FAIR      50  29  44 SE5       30.17R
$$

ALZ019-021-028-029-037-038-045>048-271200-
EAST CENTRAL ALABAMA

CITY           SKY/WX    TMP DP  RH WIND       PRES   REMARKS
ANNISTON       CLEAR     52  27  38 E5        30.19R
ALEXANDER CITY CLOUDY    48  33  56 CALM      30.18F
AUBURN         CLOUDY    50  27  40 SE8       30.23R
$$

ALZ051>064-271200-
SOUTHWEST ALABAMA

CITY           SKY/WX    TMP DP  RH WIND       PRES   REMARKS
MOBILE         CLEAR     59  53  80 SE12      30.09F
BROOKLEY FIELD CLEAR     61  57  87 SE15      30.10F
EVERGREEN      CLEAR     39  36  89 CALM      30.16R
$$

ALZ049-050-065>069-271200-
SOUTHEAST ALABAMA

CITY           SKY/WX    TMP DP  RH WIND       PRES   REMARKS
DOTHAN         PTCLDY    50  32  50 E5        30.22R
OZARK          CLOUDY    55  32  41 SE7       30.19R
TROY           MOCLDY    52  31  44 CALM      30.20R
EUFAULA        FAIR      53  28  38 SE7       30.20R
$$



USA.gov is the U.S. government's official web portal to all federal, state and local government web resources and services.